Weather Roundup
Issued by NWS Springfield, MO

Home | Current Version | Previous Version | Text Only | Print | Product List | Glossary On
Versions: 1 2 3 4 5 6 7 8 9 10 11 12 13 14 15 16 17 18 19 20 21 22 23 24 25 26 27 28 29 30 31 32 33 34 35 36 37 38 39 40 41 42 43 44 45 46 47 48 49 50
000
NZUS99 KSGF 300157
HRRSGF

HOURLY WEATHER
NATIONAL WEATHER SERVICE SPRINGFIELD MO
900 PM CDT SAT AUG 29 2015

......SGF CWA......

CITY           SKY/WX    TMP DP  RH WIND       PRES   REMARKS
SPRINGFIELD    CLOUDY    77  67  71 NE3       30.00R
JOPLIN         PTCLDY    74  70  87 N3        29.99R
WEST PLAINS    CLEAR     69  64  84 SE5       30.05R
ROLLA          CLOUDY    74  68  81 SE6       30.02R
BRANSON        MOCLDY    75  64  69 S7        30.01R

......SURROUNDING SGF CWA......

CITY           SKY/WX    TMP DP  RH WIND       PRES   REMARKS
CHANUTE        PTCLDY    72  66  81 N6        30.00R
PARSONS        CLEAR     71  68  90 N3        30.00R
COFFEYVILLE    CLEAR     73  68  84 NW5       29.98R
EMPORIA        CLEAR     67  62  84 CALM      30.03R

......KANSAS AND MISSOURI......

CITY           SKY/WX    TMP DP  RH WIND       PRES   REMARKS
KANSAS CTY INT MOCLDY    70  66  87 N7        30.03R
SEDALIA        CLOUDY    76  70  82 CALM      30.01R
ST JOSEPH      CLEAR     64  62  93 CALM      30.04R
ST LOUIS       CLOUDY    80  66  62 S6        30.02R
WICHITA        PTCLDY    69  61  75 N7        30.03R
TOPEKA         CLOUDY    72  66  81 NE5       30.03R
OLATHE         PTCLDY    72  67  84 N5        30.02R

......TENNESSEE......

CITY           SKY/WX    TMP DP  RH WIND       PRES   REMARKS
MEMPHIS        NOT AVBL
NASHVILLE      PTCLDY    72  66  81 S8        30.10R

......ARKANSAS.......

CITY           SKY/WX    TMP DP  RH WIND       PRES   REMARKS
FAYETTEVILLE   PTCLDY    74  70  87 MISG      29.99S
FT SMITH       PTCLDY    81  67  62 E5        29.95R
LITTLE ROCK    CLOUDY    79  69  71 CALM      29.99R

......OKLAHOMA.......

CITY           SKY/WX    TMP DP  RH WIND       PRES   REMARKS
TULSA          MOCLDY    80  68  66 N6        29.95R
PONCA CITY     CLEAR     72  65  78 N3        29.99R
MCALESTER      MOCLDY    79  72  79 E5        29.94R
OKLAHOMA CITY  PTCLDY    82  62  50 N8        29.97R

......IOWA............

CITY           SKY/WX    TMP DP  RH WIND       PRES   REMARKS
DES MOINES     NOT AVBL
QUAD CITIES    CLEAR     67  64  90 CALM      30.03R FOG

......ILLINOIS........

CITY           SKY/WX    TMP DP  RH WIND       PRES   REMARKS
QUINCY         NOT AVBL
CHICAGO        LGT RAIN  67  65  93 N7        30.03R FOG




USA.gov is the U.S. government's official web portal to all federal, state and local government web resources and services.